Find Starlink 30094

NORAD ID: 56305 Int'l Des: 2023-056 Owner: SPXS Country: US Constellation: starlink operational
LEOCIRCULAR

当前视图

正在加载3D地球...

About Starlink 30094

Starlink 30094 (NORAD 56305) is a starlink constellation satellite (v2 mini) launched Apr 19, 2023 by SPXS of US. It operates in LEO, CIRCULAR orbit with a mass of 730.00 kg.

即将过境

Passes for default location (London). Set your location on the main map for personalized predictions.

高度历史

Loading altitude history...

两行轨道根数

1 56305U 23056V 26263.16331256 .00000522 00000-0 28497-4 0 9994
2 56305 43.0015 190.4109 0000671 258.6446 101.4330 15.27579225189844
Epoch: Sep 20, 2026 • Age: 12 hours

当前状态

高度 493.3 km
远地点 / 近地点 N/A
速度 7.62 km/s
星下点 -36.75°S, 178.51°W
发射日期 Apr 19, 2023
运行时间 3.4 years
类型 internet

技术详情

分类 Payload
质量 730.00 kg
干质量 700.00 kg
长度 0.30 m
跨度 29.00 m
形状 ? Box + pan
制造商 SPXS
平台类型 Starlink V2M
阶段状态 In Orbit
所有者/国家 SPXS/US

Most Searched